ATLAS 5 CENTAUR DEB, 44674

Orbit data source: Space-Track

ATLAS 5 CENTAUR DEB, 44674 is space debris in HEO originally from a launch on Wed, 17 Oct 2018 UTC launched from the Air Force Eastern Test Range (AFETR). Debris objects in space refer to the collection of defunct objects orbiting the Earth. Examples of debris include non-operational satellites, rocket bodies, and fragments generated from explosions, collisions, or faulty payload assembly.

Loading next visibility...
Identifier
44674, 2018-079AL
Orbit
HEO
Country
Flag of USUS
Related business
Flag of USUnited Launch Alliance/Lockheed Martin (US)
Manufacturer
ULA Decatur
Mission
Spacecraft
Bus & Motor
Unknown
Mass
Unknown
Launch date (UTC)
2018-10-17 (7 years ago)
Launch vehicle
Unknown
Launch site
Air Force Eastern Test Range (AFETR)
Object type
Payload
Rocket body
Debris
Shape & HBR
Unknown shape, 1.1 m
Radar Cross Section
RCS unknown

Expand to show TLE details & history
Last TLE update: 2 weeks ago

TLE from 2 weeks ago
0 ATLAS 5 CENTAUR DEB
1 44674U 18079AL  25299.11845107 -.00000114  00000-0  00000-0 0  9991
2 44674  12.7137  57.5751 4348543 293.4109  27.3449  1.93749975 45009
Epoch: 2025-10-26T02:50Z
TLE epoch observation values (Epoch: 2025-10-26T02:50:34.172Z)
Latitude
-0.00004°
Longitude
-19.85968°
Altitude
12,395.981 km
Speed
5.272 km/s
True Right ascension
03h 50m 05s
True Declination
0° 00' 00"
Sunlit
Object was in daylight at epoch
Visualization orbit readout
Latitude
Unknown
Longitude
Unknown
Altitude
Unknown
Speed
Unknown
Apparent Right ascension
Unknown
Apparent Declination
Unknown
Sunlit
N/A
Visualization observer readout
Local Sidereal Time
07:42:47
Azimuth
Unknown
Elevation
Unknown
Doppler factor
Unknown
Orbital elements
Apogee altitude
32,623.397 km
Perigee altitude
8,983.387 km
Semi-major axis
27,181.529 km
Eccentricity
0.43485
Inclination
12.7137°
RAAN
57.5751°
Arg. of periapsis
293.4109°
True anomaly
66.78003°
Mean anomaly
27.3449°
Eccentric anomaly
44.94611°
Mean motion
0.48432 °/min
Orbital period
743.31 mins
BSTAR
0
Loading maneuver chart data...
Computing Atmospheric mass density...

Documentation

Showing up to 5 results
|